Meteopurmerend
purmerend
Purmerend - Baaienwijk



My webcam  My webcam


Onweer radar Meer informatie blitzortung!


Regen radar Meer informatie rain snow radar


Bezoek onze andere website:

CandyAppleRed WebdesignWebdesign Purmerend Candy Apple Red

MeteopurmerendBlog

Template documentation
and downloads



Het weer levert geen direct gevaar op.    Er zijn geen waarschuwingen afgegeven.

15 daagse weersverwachting Nokia (FI)

  • Overzicht
  • Per uur
  • 15 dagen
  • Extra
  • Vergelijk
  • Kaarten
  • Dagkaart
  • Meer »
  • Info
  • Statistieken
  • Directe link
    Temp 6h Neerslag Wind  
 04:12     22:36    Daglengte: 18:24 Vandaag
09:00
11°
0.4 mm
1
15:00
12°
6.7 mm
1
21:00
10°
4.1 mm
1
 04:10     22:38    Daglengte: 18:28 Morgen
03:00
15.7 mm
1
09:00
9.5 mm
1
15:00
13°
11.0 mm
1
21:00
11°
 
2
 04:08     22:41    Daglengte: 18:33 Zaterdag 28 Mei
03:00
 
2
09:00
10°
17.4 mm
1
15:00
13°
40.0 mm
1
21:00
11°
19.7 mm
2
 04:06     22:43    Daglengte: 18:37 Zondag 29 Mei
03:00
 
1
Locatie info
Region: Pirkanmaa
Latitude: 61.4810°N
Longitude: 23.5072°E
89 masl
Postcode: 37100
Temp/Neerslag /Baro Onweer/Dauwpunt
    Temp Baro 1h Neerslag Dauwpunt Wind UV Bewolking  
 04:12     22:36    Daglengte: 18:24 Vandaag
08:00
10°
1003.5 hPa
49%
9.7°
1
Windvlaag: 3 m/s
86%
09:00
11°
1003.1 hPa 0.4 mm
82%
9.7°
1
Windvlaag: 3.2 m/s
86%
10:00
11°
1002.6 hPa 0.4 mm
82%
10.1°
1
Windvlaag: 3.3 m/s
85%
11:00
11°
1002.3 hPa 0.6 mm
82%
10.4°
1
Windvlaag: 3.3 m/s
85%
12:00
12°
1002.0 hPa 0.8 mm
82%
10.9°
1
Windvlaag: 3.6 m/s
86%
13:00
12°
1001.8 hPa 1.3 mm
82%
11.0°
1
Windvlaag: 3.8 m/s
86%
14:00
12°
1001.4 hPa 1.7 mm
82%
11.0°
1
Windvlaag: 3.4 m/s
86%
15:00
12°
1001.0 hPa 1.9 mm
82%
10.9°
1
Windvlaag: 3.2 m/s
86%
16:00
12°
1000.6 hPa 2.1 mm
82%
10.8°
1
Windvlaag: 3.4 m/s
86%
17:00
12°
1000.1 hPa
82%
10.7°
1
Windvlaag: 3.2 m/s
86%
18:00
12°
999.9 hPa 2.0 mm
82%
10.3°
2
Windvlaag: 2 m/s
86%
19:00
11°
999.6 hPa
82%
10.1°
2
Windvlaag: 1.6 m/s
86%
20:00
11°
999.6 hPa
82%
9.7°
2
Windvlaag: 0.6 m/s
86%
21:00
10°
999.3 hPa
82%
9.5°
1
Windvlaag: 0.2 m/s
86%
22:00
10°
Voelt als: 9.3°
999.2 hPa
82%
9.3°
2
Windvlaag: 0.2 m/s
86%
23:00
Voelt als: 9.2°
999.1 hPa 3.8 mm
82%
9.2°
1
Windvlaag: 0.6 m/s
86%
 04:10     22:38    Daglengte: 18:28 Morgen
00:00
Voelt als: 9.2°
998.9 hPa 4.0 mm
82%
9.0°
1
Windvlaag: 0.3 m/s
86%
01:00
998.5 hPa 4.0 mm
82%
8.8°
1
Windvlaag: 0.4 m/s
86%
02:00
Voelt als: 8.8°
998.3 hPa
82%
8.4°
1
Windvlaag: 0.7 m/s
86%
03:00
Voelt als: 8.7°
997.8 hPa 4.0 mm
82%
8.4°
1
Windvlaag: 0.4 m/s
86%
04:00
Voelt als: 8.5°
997.5 hPa 4.2 mm
82%
8.3°
1
Windvlaag: 1 m/s
86%
05:00
997.0 hPa
82%
8.3°
1
Windvlaag: 1 m/s
86%
06:00
Voelt als: 8.6°
996.6 hPa
82%
8.1°
1
Windvlaag: 0.7 m/s
86%
07:00
996.2 hPa
82%
8.4°
1
Windvlaag: 1.1 m/s
86%
08:00
Voelt als: 9.3°
995.9 hPa
82%
8.7°
1
Windvlaag: 1.6 m/s
86%
09:00
Voelt als: 9.1°
995.7 hPa 5.4 mm
82%
8.4°
1
Windvlaag: 1.2 m/s
86%
10:00
10°
Voelt als: 9.5°
995.4 hPa 5.7 mm
82%
8.2°
1
Windvlaag: -0.4 m/s
86%
11:00
10°
995.0 hPa 5.4 mm
82%
8.2°
1
Windvlaag: -1.1 m/s
86%
12:00
11°
994.7 hPa
82%
9.1°
1
Windvlaag: -1.3 m/s
84%
13:00
12°
994.3 hPa
82%
9.6°
1
Windvlaag: -1.8 m/s
81%
14:00
12°
994.2 hPa
82%
9.7°
1
Windvlaag: -1.7 m/s
78%
15:00
13°
993.7 hPa
82%
9.5°
1
Windvlaag: -1.7 m/s
73%
16:00
13°
993.5 hPa
82%
8.8°
1
Windvlaag: -2.4 m/s
71%
17:00
13°
993.2 hPa
82%
5.1°
1
Windvlaag: -2.2 m/s
70%
18:00
13°
993.0 hPa
82%
7.7°
1
Windvlaag: -1.9 m/s
77%
19:00
12°
992.8 hPa
82%
9.8°
2
Windvlaag: -0.8 m/s
81%
20:00
11°
992.7 hPa
79%
10.0°
2
Windvlaag: -0.4 m/s
77%
21:00
11°
992.7 hPa
76%
9.7°
2
Windvlaag: -0.2 m/s
70%
22:00
10°
Voelt als: 9.4°
992.8 hPa
74%
9.0°
1
Windvlaag: -0.1 m/s
62%
23:00
Voelt als: 8.4°
992.8 hPa
28%
8.5°
2
Windvlaag: 1.2 m/s
59%
 04:08     22:41    Daglengte: 18:33 Zaterdag 28 Mei
00:00
Voelt als: 7.9°
992.0 hPa
73%
6.9°
1
Windvlaag: 1 m/s
81%
01:00
Voelt als: 7.4°
992.0 hPa
32%
6.7°
1
Windvlaag: 1.1 m/s
85%
02:00
Voelt als: 7.7°
992.0 hPa
36%
5.9°
1
Windvlaag: 0.6 m/s
81%
03:00
Voelt als: 6.6°
992.0 hPa
27%
6.0°
2
Windvlaag: -0.3 m/s
78%
04:00
Voelt als: 5.6°
992.1 hPa
30%
6.0°
2
Windvlaag: -1.4 m/s
77%
05:00
Voelt als: 6.3°
992.3 hPa
35%
6.2°
2
Windvlaag: -1.8 m/s
86%
06:00
Voelt als: 6.9°
992.5 hPa
35%
6.4°
2
Windvlaag: -2.1 m/s
78%
07:00
Voelt als: 7.7°
992.6 hPa
46%
7.0°
1
Windvlaag: -2.5 m/s
72%
08:00
992.8 hPa 8.7 mm
84%
7.7°
1
Windvlaag: -2.5 m/s
91%
09:00
10°
993.0 hPa 8.7 mm
97%
8.6°
1
Windvlaag: -1.8 m/s
70%
10:00
11°
993.3 hPa 9.1 mm
100%
9.7°
1
Windvlaag: -1.8 m/s
70%
11:00
12°
993.7 hPa 9.5 mm
100%
10.2°
1
Windvlaag: -1.7 m/s
60%
12:00
12°
994.2 hPa 9.7 mm
100%
10.6°
1
Windvlaag: -1.2 m/s
96%
13:00
12°
994.5 hPa 5.8 mm
100%
10.6°
1
Windvlaag: -1.2 m/s
94%
14:00
12°
994.7 hPa 5.9 mm
100%
10.1°
1
Windvlaag: -2.3 m/s
88%
15:00
13°
995.0 hPa
100%
10.6°
1
Windvlaag: -2.2 m/s
78%
16:00
13°
995.2 hPa
100%
11.0°
2
Windvlaag: -2.9 m/s
82%
17:00
13°
995.5 hPa
100%
9.9°
2
Windvlaag: -3.7 m/s
68%
18:00
13°
995.7 hPa
99%
9.2°
2
Windvlaag: -3.9 m/s
64%
19:00
12°
996.0 hPa
98%
8.9°
2
Windvlaag: -3.9 m/s
58%
20:00
12°
996.4 hPa 9.8 mm
100%
8.4°
2
Windvlaag: -4.1 m/s
66%
21:00
11°
996.7 hPa 9.9 mm
100%
8.6°
2
Windvlaag: -4.1 m/s
65%
22:00
10°
Voelt als: 9.2°
996.9 hPa
45%
8.1°
2
Windvlaag: -3.5 m/s
56%
23:00
Voelt als: 8.0°
997.1 hPa
21%
7.6°
2
Windvlaag: -2.9 m/s
62%
 04:06     22:43    Daglengte: 18:37 Zondag 29 Mei
00:00
Voelt als: 7.0°
997.3 hPa
21%
7.1°
2
Windvlaag: -2.7 m/s
74%
01:00
Voelt als: 6.7°
996.4 hPa
21%
6.7°
1
Windvlaag: 4.4 m/s
48%
02:00
Voelt als: 6.3°
996.6 hPa
21%
6.3°
1
Windvlaag: 4.4 m/s
72%
03:00
Voelt als: 6.2°
996.7 hPa
21%
5.7°
1
Windvlaag: 5.2 m/s
100%
04:00
Voelt als: 5.9°
996.9 hPa
21%
5.6°
1
Windvlaag: 5.4 m/s
100%
05:00
Voelt als: 5.8°
997.2 hPa
21%
5.3°
1
Windvlaag: 5.2 m/s
100%
06:00
Voelt als: 6.5°
997.4 hPa
21%
5.9°
1
Windvlaag: 4.8 m/s
100%
07:00
Voelt als: 7.7°
997.7 hPa
21%
6.8°
1
Windvlaag: 3.3 m/s
100%
Temp/Neerslag /Baro Onweer/Dauwpunt
    Temp Baro Neerslag Dauwpunt Wind Bewolking  
 04:12     22:36    Daglengte: 18:24 Vandaag
09:00
11°
1003.1 hPa 0.4 mm 9.7°
1
86%
12:00
12°
1002.0 hPa 1.9 mm 10.9°
1
86%
15:00
12°
1001.0 hPa 4.8 mm 10.9°
1
86%
18:00
12°
999.9 hPa 4.1 mm 10.3°
2
86%
21:00
10°
999.3 hPa   9.5°
1
86%
 04:10     22:38    Daglengte: 18:28 Morgen
00:00
Voelt als: 9.2°
998.9 hPa 7.7 mm 9.0°
1
86%
03:00
Voelt als: 8.7°
997.8 hPa 8.0 mm 8.4°
1
86%
06:00
Voelt als: 8.6°
996.6 hPa 4.2 mm 8.1°
1
86%
09:00
Voelt als: 9.1°
995.7 hPa 5.4 mm 8.4°
1
86%
12:00
11°
994.7 hPa 11.0 mm 9.1°
1
84%
15:00
13°
993.7 hPa   9.5°
1
73%
18:00
13°
993.0 hPa   7.7°
1
77%
21:00
11°
992.7 hPa   9.7°
2
70%
 04:08     22:41    Daglengte: 18:33 Zaterdag 28 Mei
00:00
Voelt als: 7.9°
992.0 hPa   6.9°
1
81%
03:00
Voelt als: 6.6°
992.0 hPa   6.0°
2
78%
06:00
Voelt als: 6.9°
992.5 hPa   6.4°
2
78%
09:00
10°
993.0 hPa 17.4 mm 8.6°
1
70%
12:00
12°
994.2 hPa 28.3 mm 10.6°
1
96%
15:00
13°
995.0 hPa 11.7 mm 10.6°
1
78%
18:00
13°
995.7 hPa   9.2°
2
64%
21:00
11°
996.7 hPa 19.7 mm 8.6°
2
65%
 04:06     22:43    Daglengte: 18:37 Zondag 29 Mei
00:00
Voelt als: 7.0°
997.3 hPa   7.1°
2
74%
03:00
Voelt als: 6.2°
996.7 hPa   5.7°
1
100%
06:00
Voelt als: 6.5°
997.4 hPa   5.9°
1
100%
09:00
11°
998.3 hPa   9.4°
1
77%
12:00
10°
1001.1 hPa 31.7 mm 5.5°
2
1%
15:00
13°
1002.3 hPa 31.7 mm 5.3°
2
1%
18:00
13°
1003.4 hPa 31.7 mm 5.5°
3
1%
21:00
10°
1004.7 hPa 31.8 mm 6.2°
3
1%
 04:05     22:45    Daglengte: 18:40 Maandag 30 Mei
00:00
Voelt als: 4.6°
1006.2 hPa 31.8 mm 5.3°
3
1%
03:00
Voelt als: 5.0°
1006.8 hPa 31.8 mm 5.3°
3
1%
06:00
Voelt als: 4.7°
1007.7 hPa 31.8 mm 5.0°
3
1%
09:00
Voelt als: 6.8°
1009.1 hPa 31.8 mm 4.8°
3
1%
12:00
13°
1010.1 hPa 31.8 mm 4.4°
2
1%
15:00
13°
1011.2 hPa 31.9 mm 4.8°
4
1%
18:00
13°
1012.8 hPa 32.1 mm 5.0°
3
1%
21:00
11°
1014.7 hPa 32.2 mm 5.8°
3
1%
 04:03     22:47    Daglengte: 18:44 Dinsdag 31 Mei
00:00
Voelt als: 5.1°
1016.8 hPa 32.2 mm 5.2°
2
0%
03:00
Voelt als: 6.5°
1018.2 hPa 32.2 mm 5.5°
2
1%
06:00
Voelt als: 6.0°
1019.2 hPa 32.2 mm 5.1°
1
0%
09:00
Voelt als: 8.4°
1019.7 hPa 32.2 mm 5.5°
2
0%
12:00
14°
1019.5 hPa 32.2 mm 5.8°
2
1%
15:00
17°
1017.9 hPa 32.3 mm 5.5°
2
1%
18:00
15°
1016.9 hPa 32.6 mm 7.4°
2
1%
21:00
13°
1015.9 hPa 32.8 mm 7.4°
2
1%
 04:01     22:49    Daglengte: 18:48 Woensdag 01 Jun
00:00
10°
1014.6 hPa 32.8 mm 6.4°
2
1%
03:00
10°
Voelt als: 8.1°
1011.7 hPa 32.8 mm 5.4°
3
1%
06:00
Voelt als: 6.4°
1008.5 hPa 34.4 mm 7.5°
3
1%
09:00
Voelt als: 4.9°
1005.1 hPa 41.1 mm 7.1°
7
1%
12:00
Voelt als: 4.2°
1002.5 hPa 49.7 mm 7.0°
8
1%
15:00
Voelt als: 4.1°
1001.5 hPa 53.4 mm 7.1°
8
1%
18:00
Voelt als: 4.1°
1001.7 hPa 57.4 mm 6.9°
8
1%
21:00
Voelt als: 4.7°
1001.5 hPa 63.3 mm 7.5°
8
1%
 04:00     22:51    Daglengte: 18:51 Donderdag 02 Jun
00:00
Voelt als: 4.9°
1001.8 hPa 67.3 mm 7.9°
7
1%
03:00
Voelt als: 5.3°
1001.5 hPa 70.8 mm 8.1°
7
1%
06:00
Voelt als: 5.5°
1002.3 hPa   8.3°
6
1%
09:00
Voelt als: 5.9°
1003.7 hPa 145.0 mm 8.2°
4
1%
15:00
Voelt als: 6.4°
1008.1 hPa 148.3 mm 8.6°
5
1%
21:00
Voelt als: 6.0°
1009.6 hPa 149.9 mm 7.9°
4
1%
 03:58     22:53    Daglengte: 18:55 Vrijdag 03 Jun
03:00
Voelt als: 5.7°
1010.9 hPa 151.0 mm 7.8°
4
1%
09:00
10°
Voelt als: 7.9°
1012.9 hPa 151.4 mm 8.1°
3
1%
15:00
12°
1015.2 hPa 152.8 mm 8.5°
3
1%
21:00
12°
1016.4 hPa 153.9 mm 9.5°
2
1%
 03:57     22:55    Daglengte: 18:58 Zaterdag 04 Jun
03:00
Voelt als: 5.6°
1019.2 hPa 154.1 mm 6.4°
2
1%
09:00
14°
1020.2 hPa 154.1 mm 8.7°
3
0%
15:00
19°
1020.6 hPa 154.2 mm 10.7°
3
1%
21:00
17°
1020.9 hPa 154.4 mm 12.7°
2
1%
 03:55     22:56    Daglengte: 19:01 Zondag 05 Jun
03:00
1015.3 hPa 0.5 mm 7.1°
0
65%
09:00
14°
1015.2 hPa 0.2 mm 8.0°
1
58%
15:00
18°
1014.9 hPa 0.4 mm 7.5°
0
61%
21:00
15°
1014.3 hPa 0.4 mm 8.5°
1
59%
 03:54     22:58    Daglengte: 19:04 Maandag 06 Jun
03:00
1014.4 hPa 0.2 mm 6.7°
0
54%
09:00
14°
1013.8 hPa 0.4 mm 8.1°
0
55%
15:00
19°
1013.2 hPa 1.4 mm 8.0°
1
55%
21:00
15°
1012.8 hPa 1.2 mm 9.0°
1
65%
 03:53     23:00    Daglengte: 19:07 Dinsdag 07 Jun
03:00
1013.0 hPa 0.1 mm 6.8°
0
48%
09:00
15°
1012.5 hPa 0.2 mm 8.7°
1
54%
15:00
19°
1011.8 hPa   8.6°
0
58%
21:00
15°
1011.5 hPa 0.6 mm 8.9°
0
72%
 03:52     23:01    Daglengte: 19:09 Woensdag 08 Jun
03:00
10°
1011.9 hPa 0.4 mm 7.2°
0
61%
09:00
14°
1011.5 hPa 0.4 mm 8.5°
1
57%
15:00
18°
1011.1 hPa 0.5 mm 9.0°
1
59%
21:00
15°
1010.8 hPa 1.1 mm 9.4°
0
71%
 03:51     23:03    Daglengte: 19:12 Donderdag 09 Jun
03:00
10°
1011.0 hPa 0.2 mm 7.7°
1
67%
09:00
14°
1010.7 hPa 0.7 mm 9.2°
1
67%
15:00
17°
1010.6 hPa 1.3 mm 9.6°
1
70%
21:00
14°
1010.4 hPa 0.1 mm 9.8°
1
69%
 03:50     23:04    Daglengte: 19:14 Vrijdag 10 Jun
03:00
10°
1010.8 hPa   7.9°
0
62%
  CAPE Lifted Index Hail Supercell Tornado SRH 3km CL BTM PRES CL TOP PRES Swiss DWD icon SMHI TS
 04:12     22:36    Daglengte: 18:24 Vandaag
08:00 0 J/kg 5.0 K 0 % 0 % 0 % 0 m²/s² 0 0 5.24 61
09:00 0 J/kg 4.6 K 0 % 0 % 0 % 0 m²/s² 0 0 4.84 61
10:00 23 J/kg 4.4 K 0 % 0 % 0 % 0 m²/s² 0 0 4.64 61
11:00 51 J/kg 4.0 K 0 % 0 % 0 % 0 m²/s² 0 0 4.3 61
12:00 72 J/kg 3.7 K 0 % 0 % 0 % 0 m²/s² 0 0 3.97 61
13:00 82 J/kg 3.3 K 0 % 0 % 0 % 0 m²/s² 0 0 3.57 61
14:00 101 J/kg 3.0 K 0 % 0 % 0 % 0 m²/s² 0 0 3.27 61
15:00 118 J/kg 2.7 K 0 % 0 % 0 % 0 m²/s² 0 0 2.97 61
16:00 89 J/kg 3.0 K 0 % 0 % 0 % 0 m²/s² 0 0 3.33 61
17:00 14 J/kg 4.0 K 0 % 0 % 0 % 0 m²/s² 0 0 4.33 61
18:00 1 J/kg 4.1 K 0 % 0 % 0 % 0 m²/s² 0 0 4.43 61
19:00 8 J/kg 4.1 K 0 % 0 % 0 % 0 m²/s² 0 0 4.37 61
20:00 30 J/kg 3.9 K 0 % 0 % 0 % 0 m²/s² 0 0 4.14 61
21:00 30 J/kg 3.7 K 0 % 0 % 0 % 0 m²/s² 0 0 3.94 61
22:00 46 J/kg 3.7 K 0 % 0 % 0 % 0 m²/s² 0 0 3.97 61
23:00 71 J/kg 3.8 K 0 % 0 % 0 % 0 m²/s² 0 0 4.07 61
 04:10     22:38    Daglengte: 18:28 Morgen
00:00 67 J/kg 3.9 K 0 % 0 % 0 % 0 m²/s² 0 0 4.26 61
01:00 50 J/kg 3.9 K 0 % 0 % 0 % 0 m²/s² 0 0 4.23 61
02:00 40 J/kg 4.0 K 0 % 0 % 0 % 0 m²/s² 0 0 4.27 61
03:00 30 J/kg 4.3 K 0 % 0 % 0 % 0 m²/s² 0 0 4.57 61
04:00 10 J/kg 5.1 K 0 % 0 % 0 % 0 m²/s² 0 0 5.43 61
05:00 6 J/kg 5.6 K 0 % 0 % 0 % 0 m²/s² 0 0 5.93 61
06:00 9 J/kg 5.6 K 0 % 0 % 0 % 0 m²/s² 0 0 5.93 61
07:00 13 J/kg 4.5 K 0 % 0 % 0 % 0 m²/s² 0 0 4.83 3
08:00 38 J/kg 4.6 K 0 % 0 % 0 % 0 m²/s² 0 0 4.93 61
09:00 60 J/kg 4.3 K 0 % 0 % 0 % 0 m²/s² 0 0 4.63 61
10:00 90 J/kg 4.0 K 0 % 0 % 0 % 0 m²/s² 0 0 4.36 61
11:00 92 J/kg 4.1 K 0 % 0 % 0 % 0 m²/s² 0 0 4.43 61
12:00 85 J/kg 4.1 K 0 % 0 % 0 % 0 m²/s² 0 0 4.46 3
13:00 61 J/kg 4.3 K 0 % 0 % 0 % 0 m²/s² 0 0 4.69 3
14:00 45 J/kg 4.3 K 0 % 0 % 0 % 0 m²/s² 0 0 4.66 61
15:00 37 J/kg 3.9 K 0 % 0 % 0 % 0 m²/s² 0 0 4.26 61
16:00 41 J/kg 3.1 K 0 % 0 % 0 % 0 m²/s² 0 0 3.49 61
17:00 92 J/kg 2.4 K 0 % 0 % 0 % 0 m²/s² 0 0 2.73 61
18:00 75 J/kg 2.1 K 0 % 0 % 0 % 0 m²/s² 0 0 2.46 61
19:00 40 J/kg 2.6 K 0 % 0 % 0 % 0 m²/s² 0 0 2.96 61
20:00 78 J/kg 2.0 K 0 % 0 % 0 % 0 m²/s² 0 0 2.33 61
21:00 25 J/kg 2.8 K 0 % 0 % 0 % 0 m²/s² 0 0 3.16 61
22:00 0 J/kg 3.2 K 0 % 0 % 0 % 0 m²/s² 0 0 3.53 3
23:00 38 J/kg 2.7 K 0 % 0 % 0 % 0 m²/s² 0 0 3.06 3
 04:08     22:41    Daglengte: 18:33 Zaterdag 28 Mei
00:00 3 J/kg 3.3 K 0 % 0 % 0 % 0 m²/s² 0 0 3.72 3
01:00 0 J/kg 3.7 K 0 % 0 % 0 % 0 m²/s² 0 0 4.48 2
02:00 0 J/kg 4.3 K 0 % 0 % 0 % 0 m²/s² 0 0 4.96 2
03:00 0 J/kg 4.8 K 0 % 0 % 0 % 0 m²/s² 0 0 5.37 2
04:00 0 J/kg 5.0 K 0 % 0 % 0 % 0 m²/s² 0 0 5.48 3
05:00 0 J/kg 5.2 K 0 % 0 % 0 % 0 m²/s² 0 0 5.65 45
06:00 0 J/kg 5.2 K 0 % 0 % 0 % 0 m²/s² 0 0 5.53 45
07:00 8 J/kg 5.3 K 0 % 0 % 0 % 0 m²/s² 0 0 5.54 45
08:00 8 J/kg 5.3 K 0 % 0 % 0 % 0 m²/s² 0 0 5.6 3
09:00 15 J/kg 4.9 K 0 % 0 % 0 % 0 m²/s² 0 0 5.2 3
10:00 24 J/kg 4.7 K 0 % 0 % 0 % 0 m²/s² 0 0 5 80
11:00 31 J/kg 4.4 K 0 % 0 % 0 % 0 m²/s² 0 0 4.76 80
12:00 18 J/kg 4.4 K 0 % 0 % 0 % 0 m²/s² 0 0 4.82 80
13:00 6 J/kg 4.4 K 0 % 0 % 0 % 0 m²/s² 0 0 4.82 80
14:00 1 J/kg 4.3 K 0 % 0 % 0 % 0 m²/s² 0 0 4.96 80
15:00 3 J/kg 4.2 K 0 % 0 % 0 % 0 m²/s² 0 0 5.04 3
16:00 1 J/kg 4.0 K 0 % 0 % 0 % 0 m²/s² 0 0 5.17 3
17:00 2 J/kg 4.4 K 0 % 0 % 0 % 0 m²/s² 0 0 5.81 3
18:00 12 J/kg 4.4 K 0 % 0 % 0 % 0 m²/s² 0 0 5.99 3
19:00 22 J/kg 3.7 K 0 % 0 % 0 % 0 m²/s² 0 0 4.81 3
20:00 42 J/kg 3.1 K 0 % 0 % 0 % 0 m²/s² 0 0 3.76 3
21:00 50 J/kg 2.9 K 0 % 0 % 0 % 0 m²/s² 0 0 3.38 80
22:00 46 J/kg 3.1 K 0 % 0 % 0 % 0 m²/s² 0 0 3.58 2
23:00 32 J/kg 3.7 K 0 % 0 % 0 % 0 m²/s² 0 0 4.15 2
 04:06     22:43    Daglengte: 18:37 Zondag 29 Mei
00:00 14 J/kg 4.0 K 0 % 0 % 0 % 0 m²/s² 0 0 4.39 1
01:00 11 J/kg 4.0 K 0 % 0 % 0 % 0 m²/s² 0 0 4.45 45
02:00 1 J/kg 4.2 K 0 % 0 % 0 % 0 m²/s² 0 0 4.68 45
03:00 0 J/kg 4.2 K 0 % 0 % 0 % 0 m²/s² 0 0 4.77 45
04:00 0 J/kg 3.8 K 0 % 0 % 0 % 0 m²/s² 0 0 4.55 45
05:00 0 J/kg 2.8 K 0 % 0 % 0 % 0 m²/s² 0 0 3.4 45
06:00 0 J/kg 2.0 K 0 % 0 % 0 % 0 m²/s² 0 0 2.39 45
07:00 1 J/kg 1.5 K 0 % 0 % 0 % 0 m²/s² 0 0 2.34 45
Temp Baro Wind Neerslag
  EWN Forecast EWN WRFDA DWD ICON FMI HIRLAM MET Norway GFS
 04:12     22:36    Daglengte: 18:24 Vandaag
09:00 10.5° 1003.1 hPa 1.3 m/s 0.4 mm 11.2° 1001.2 hPa 1.3 m/s 1.0 mm 10.4° 1003.3 hPa 1.2 m/s 0.5 mm 11.0° 1003.3 hPa 1.3 m/s 0.0 mm 12.6° 1002.2 hPa 1.2 m/s
12:00 11.8° 1002.0 hPa 1.5 m/s 1.9 mm 12.2° 1000.0 hPa 1.7 m/s 3.6 mm 12.1° 1002.5 hPa 1.6 m/s 1.3 mm 12.0° 1002.2 hPa 0.5 m/s 0.0 mm 11.9° 1001.3 hPa 1.5 m/s
15:00 12.0° 1001.0 hPa 1.2 m/s 4.8 mm 11.4° 999.3 hPa 2.1 m/s 12.4 mm 12.0° 1001.4 hPa 1.1 m/s 2.3 mm 14.4° 1000.8 hPa 0.5 m/s 0.0 mm 10.2° 1000.7 hPa 2.6 m/s
18:00 11.6° 999.9 hPa 1.7 m/s 4.1 mm 11.0° 997.8 hPa 2.7 m/s 25.0 mm 11.6° 1000.6 hPa 1.5 m/s 2.5 mm 12.6° 1000.0 hPa 2.1 m/s 0.0 mm 9.4° 999.6 hPa 1.7 m/s
21:00 10.1° 999.3 hPa 1.5 m/s 0.0 mm 9.7° 997.0 hPa 0.8 m/s 32.7 mm 10.1° 999.6 hPa 1.5 m/s 2.2 mm 10.8° 999.9 hPa 2.3 m/s 0.0 mm 8.4° 999.1 hPa 2.1 m/s
 04:10     22:38    Daglengte: 18:28 Morgen
00:00 9.3° 998.9 hPa 1.2 m/s 7.7 mm 9.3° 995.7 hPa 1.4 m/s 46.6 mm 9.3° 999.3 hPa 1.4 m/s 4.0 mm 10.0° 999.6 hPa 0.9 m/s 0.0 mm 7.7° 998.1 hPa 1.2 m/s
03:00 8.7° 997.8 hPa 0.9 m/s 8.0 mm 8.7° 994.4 hPa 2.3 m/s 55.4 mm 8.3° 998.2 hPa 0.4 m/s 1.9 mm 9.6° 998.8 hPa 0.8 m/s 0.0 mm 7.7° 996.7 hPa 2.3 m/s
06:00 8.6° 996.6 hPa 0.7 m/s 4.2 mm 8.4° 993.0 hPa 0.7 m/s 61.9 mm 8.3° 996.9 hPa 0.6 m/s 0.4 mm 10.0° 998.0 hPa 1.3 m/s 0.0 mm 7.8° 995.8 hPa 1.8 m/s
09:00 9.2° 995.7 hPa 1.3 m/s 5.4 mm 9.4° 991.7 hPa 2.4 m/s 68.6 mm 8.9° 996.0 hPa 1.2 m/s 1.5 mm 11.0° 997.4 hPa 1.4 m/s 0.0 mm 9.4° 994.2 hPa 3.1 m/s
12:00 11.2° 994.7 hPa 1.2 m/s 11.0 mm 12.1° 990.6 hPa 1.5 m/s 74.9 mm 11.0° 994.9 hPa 1.1 m/s 2.2 mm 12.6° 996.8 hPa 1.8 m/s 0.0 mm 11.4° 993.2 hPa 3.5 m/s
15:00 12.6° 993.7 hPa 1.3 m/s 0.0 mm 14.8° 989.2 hPa 1.3 m/s 75.5 mm 11.6° 993.9 hPa 1.2 m/s 0.4 mm 13.5° 996.0 hPa 1.9 m/s 0.0 mm 12.5° 992.1 hPa 3.4 m/s
18:00 12.6° 993.0 hPa 1.3 m/s 0.0 mm 13.5° 988.1 hPa 3.2 m/s 75.5 mm 11.7° 993.2 hPa 1.1 m/s 0.4 mm 14.8° 995.4 hPa 1.2 m/s 0.0 mm 11.4° 991.2 hPa 4.5 m/s
21:00 10.7° 992.7 hPa 1.7 m/s 0.0 mm 11.8° 987.8 hPa 3.9 m/s 75.8 mm 10.5° 992.5 hPa 1.3 m/s 0.2 mm 12.1° 994.9 hPa 1.5 m/s 0.0 mm 8.4° 991.2 hPa 2.5 m/s
 04:08     22:41    Daglengte: 18:33 Zaterdag 28 Mei
00:00 8.4° 992.0 hPa 1.5 m/s 0.0 mm 9.8° 987.2 hPa 2.6 m/s 76.1 mm 8.0° 992.5 hPa 1.0 m/s 0.0 mm 7.5° 991.3 hPa 1.9 m/s
03:00 7.4° 992.0 hPa 1.5 m/s 0.0 mm 7.3° 987.6 hPa 2.4 m/s 76.2 mm 6.6° 992.3 hPa 1.3 m/s 0.0 mm 5.3° 991.3 hPa 1.4 m/s
06:00 7.6° 992.5 hPa 1.5 m/s 0.0 mm 7.9° 987.3 hPa 1.9 m/s 76.2 mm 7.2° 992.9 hPa 0.7 m/s 0.0 mm 6.5° 991.3 hPa 1.5 m/s
09:00 9.6° 993.0 hPa 1.2 m/s 17.4 mm 8.5° 987.9 hPa 1.4 m/s 77.2 mm 10.2° 993.2 hPa 0.9 m/s 0.2 mm 6.8° 992.0 hPa 1.6 m/s
12:00 12.3° 994.2 hPa 1.3 m/s 28.3 mm 9.0° 989.1 hPa 2.7 m/s 82.3 mm 12.7° 994.4 hPa 0.9 m/s 1.3 mm 7.1° 993.2 hPa 1.8 m/s
15:00 12.5° 995.0 hPa 1.3 m/s 11.7 mm 8.4° 990.5 hPa 3.0 m/s 85.9 mm 14.0° 995.1 hPa 1.1 m/s 0.5 mm 10.0° 994.0 hPa 2.0 m/s
18:00 12.5° 995.7 hPa 2.4 m/s 0.0 mm 9.6° 991.7 hPa 2.6 m/s 87.1 mm 13.9° 995.6 hPa 0.7 m/s 0.1 mm 8.9° 995.3 hPa 1.9 m/s
21:00 10.8° 996.7 hPa 2.1 m/s 19.7 mm 9.4° 992.1 hPa 2.0 m/s 87.2 mm 11.8° 996.7 hPa 1.3 m/s 0.5 mm 7.8° 996.1 hPa 1.5 m/s
 04:06     22:43    Daglengte: 18:37 Zondag 29 Mei
00:00 8.0° 997.3 hPa 1.9 m/s 0.0 mm 7.4° 992.6 hPa 1.9 m/s 87.8 mm 8.2° 997.1 hPa 0.8 m/s 0.0 mm 6.4° 997.2 hPa 2.1 m/s
03:00 6.7° 996.7 hPa 1.3 m/s 0.0 mm 6.4° 992.6 hPa 2.5 m/s 88.0 mm 6.7° 997.7 hPa 0.9 m/s 0.0 mm 6.1° 997.8 hPa 2.0 m/s
06:00 6.9° 997.4 hPa 1.2 m/s 0.0 mm 6.7° 992.6 hPa 2.8 m/s 88.3 mm 7.0° 998.6 hPa 0.8 m/s 0.0 mm 6.2° 998.6 hPa 2.2 m/s
09:00 11.1° 998.3 hPa 0.9 m/s 0.0 mm 8.4° 993.9 hPa 1.8 m/s 88.5 mm 11.8° 999.4 hPa 0.7 m/s 0.0 mm 8.6° 999.7 hPa 1.8 m/s
12:00 10.0° 1001.1 hPa 1.5 m/s 31.7 mm 10.0° 1001.1 hPa 1.5 m/s 31.7 mm
15:00 13.1° 1002.3 hPa 2.3 m/s 31.7 mm 13.1° 1002.3 hPa 2.3 m/s 31.7 mm
18:00 13.0° 1003.4 hPa 2.7 m/s 31.7 mm 13.0° 1003.4 hPa 2.7 m/s 31.7 mm
21:00 10.4° 1004.7 hPa 3.3 m/s 31.8 mm 10.4° 1004.7 hPa 3.3 m/s 31.8 mm
 04:05     22:45    Daglengte: 18:40 Maandag 30 Mei
00:00 6.6° 1006.2 hPa 2.7 m/s 31.8 mm 6.6° 1006.2 hPa 2.7 m/s 31.8 mm
03:00 6.9° 1006.8 hPa 2.6 m/s 31.8 mm 6.9° 1006.8 hPa 2.6 m/s 31.8 mm
06:00 6.6° 1007.7 hPa 2.5 m/s 31.8 mm 6.6° 1007.7 hPa 2.5 m/s 31.8 mm
09:00 8.4° 1009.1 hPa 2.6 m/s 31.8 mm 8.4° 1009.1 hPa 2.6 m/s 31.8 mm
12:00 13.0° 1010.1 hPa 2.4 m/s 31.8 mm 13.0° 1010.1 hPa 2.4 m/s 31.8 mm
15:00 12.5° 1011.2 hPa 3.8 m/s 31.9 mm 12.5° 1011.2 hPa 3.8 m/s 31.9 mm
18:00 13.0° 1012.8 hPa 3.0 m/s 32.1 mm 13.0° 1012.8 hPa 3.0 m/s 32.1 mm
21:00 10.6° 1014.7 hPa 3.3 m/s 32.2 mm 10.6° 1014.7 hPa 3.3 m/s 32.2 mm
 04:03     22:47    Daglengte: 18:44 Dinsdag 31 Mei
00:00 6.3° 1016.8 hPa 1.8 m/s 32.2 mm 6.3° 1016.8 hPa 1.8 m/s 32.2 mm
03:00 7.5° 1018.2 hPa 1.8 m/s 32.2 mm 7.5° 1018.2 hPa 1.8 m/s 32.2 mm
06:00 6.8° 1019.2 hPa 1.5 m/s 32.2 mm 6.8° 1019.2 hPa 1.5 m/s 32.2 mm
09:00 9.4° 1019.7 hPa 2.1 m/s 32.2 mm 9.4° 1019.7 hPa 2.1 m/s 32.2 mm
12:00 14.2° 1019.5 hPa 2.1 m/s 32.2 mm 14.2° 1019.5 hPa 2.1 m/s 32.2 mm
15:00 16.6° 1017.9 hPa 2.1 m/s 32.3 mm 16.6° 1017.9 hPa 2.1 m/s 32.3 mm
18:00 15.1° 1016.9 hPa 1.5 m/s 32.6 mm 15.1° 1016.9 hPa 1.5 m/s 32.6 mm
21:00 12.7° 1015.9 hPa 2.0 m/s 32.8 mm 12.7° 1015.9 hPa 2.0 m/s 32.8 mm
 04:01     22:49    Daglengte: 18:48 Woensdag 01 Jun
00:00 10.2° 1014.6 hPa 2.5 m/s 32.8 mm 10.2° 1014.6 hPa 2.5 m/s 32.8 mm
03:00 9.8° 1011.7 hPa 3.2 m/s 32.8 mm 9.8° 1011.7 hPa 3.2 m/s 32.8 mm
06:00 8.5° 1008.5 hPa 3.4 m/s 34.4 mm 8.5° 1008.5 hPa 3.4 m/s 34.4 mm
09:00 8.4° 1005.1 hPa 6.7 m/s 41.1 mm 8.4° 1005.1 hPa 6.7 m/s 41.1 mm
12:00 8.1° 1002.5 hPa 7.8 m/s 49.7 mm 8.1° 1002.5 hPa 7.8 m/s 49.7 mm
15:00 8.0° 1001.5 hPa 8.1 m/s 53.4 mm 8.0° 1001.5 hPa 8.1 m/s 53.4 mm
18:00 8.0° 1001.7 hPa 8.1 m/s 57.4 mm 8.0° 1001.7 hPa 8.1 m/s 57.4 mm
21:00 8.5° 1001.5 hPa 8.1 m/s 63.3 mm 8.5° 1001.5 hPa 8.1 m/s 63.3 mm
 04:00     22:51    Daglengte: 18:51 Donderdag 02 Jun
00:00 8.5° 1001.8 hPa 7.4 m/s 67.3 mm 8.5° 1001.8 hPa 7.4 m/s 67.3 mm
03:00 8.6° 1001.5 hPa 6.5 m/s 70.8 mm 8.6° 1001.5 hPa 6.5 m/s 70.8 mm
06:00 8.6° 1002.3 hPa 5.7 m/s 71.9 mm 8.6° 1002.3 hPa 5.7 m/s 71.9 mm
09:00 8.5° 1003.7 hPa 4.5 m/s 73.2 mm 8.5° 1003.7 hPa 4.5 m/s 73.2 mm
15:00 9.1° 1008.1 hPa 5.0 m/s 74.3 mm 9.1° 1008.1 hPa 5.0 m/s 74.3 mm
21:00 8.2° 1009.6 hPa 3.7 m/s 75.2 mm 8.2° 1009.6 hPa 3.7 m/s 75.2 mm
 03:58     22:53    Daglengte: 18:55 Vrijdag 03 Jun
03:00 8.1° 1010.9 hPa 3.9 m/s 75.5 mm 8.1° 1010.9 hPa 3.9 m/s 75.5 mm
09:00 9.7° 1012.9 hPa 3.4 m/s 75.7 mm 9.7° 1012.9 hPa 3.4 m/s 75.7 mm
15:00 11.8° 1015.2 hPa 3.4 m/s 76.6 mm 11.8° 1015.2 hPa 3.4 m/s 76.6 mm
21:00 12.3° 1016.4 hPa 2.2 m/s 77.1 mm 12.3° 1016.4 hPa 2.2 m/s 77.1 mm
 03:57     22:55    Daglengte: 18:58 Zaterdag 04 Jun
03:00 7.0° 1019.2 hPa 2.2 m/s 77.1 mm 7.0° 1019.2 hPa 2.2 m/s 77.1 mm
09:00 14.0° 1020.2 hPa 2.7 m/s 77.1 mm 14.0° 1020.2 hPa 2.7 m/s 77.1 mm
15:00 18.5° 1020.6 hPa 2.7 m/s 77.1 mm 18.5° 1020.6 hPa 2.7 m/s 77.1 mm
21:00 17.1° 1020.9 hPa 1.9 m/s 77.3 mm 17.1° 1020.9 hPa 1.9 m/s 77.3 mm
 03:55     22:56    Daglengte: 19:01 Zondag 05 Jun
03:00 9.5° 1015.3 hPa 0.4 m/s 0.5 mm
09:00 13.8° 1015.2 hPa 0.6 m/s 0.2 mm
15:00 18.4° 1014.9 hPa 0.2 m/s 0.4 mm
21:00 15.2° 1014.3 hPa 0.5 m/s 0.4 mm
 03:54     22:58    Daglengte: 19:04 Maandag 06 Jun
03:00 9.5° 1014.4 hPa 0.2 m/s 0.2 mm
09:00 14.5° 1013.8 hPa 0.1 m/s 0.4 mm
15:00 19.0° 1013.2 hPa 0.8 m/s 1.4 mm
21:00 15.3° 1012.8 hPa 0.9 m/s 1.2 mm